Weather History for Tucson Davis Monthan, AZ

Change the Weather History Date:

Wednesday, January 30, 2013

  Actual Average Record
Temperature  
Mean Temperature 43 °F -  
Max Temperature 55 °F 66 °F 82 °F (1987)
Min Temperature 31 °F 40 °F 25 °F (1979)
Degree Days  
Heating Degree Days 22    
Growing Degree Days 0 (Base 50)    
Moisture  
Dew Point 23 °F    
Average Humidity 49    
Maximum Humidity 81    
Minimum Humidity 21    
Precipitation  
Precipitation 0.00 in - - ()
Sea Level Pressure  
Sea Level Pressure 30.24 in    
Wind  
Wind Speed 5 mph (SW)    
Max Wind Speed 13 mph    
Max Gust Speed -    
Visibility 10 miles    
Events      
Averages and records for this station are not official NWS values.
T = Trace of Precipitation, MM = Missing Value Source: NWS Daily Summary

Daily Weather History Graph

Daily Weather History Graph

Search for Another Location

Airport:

Trip Planner

Search our weather history database for the weather conditions in past years. The results will help you decide how hot, cold, wet, or windy it might be!

Date:

Astronomy

Jan. 30, 2013 Rise Set
Actual Time 7:18 AM MST 5:55 PM MST
Civil Twilight 6:52 AM MST 6:21 PM MST
Nautical Twilight 6:23 AM MST 6:50 PM MST
Astronomical Twilight 5:54 AM MST 7:19 PM MST
Moon 9:40 PM MST (1/30) 9:04 AM MST (1/30)
Length of Visible Light 11h 28m
Length of Day
10h 37m
Waning Gibbous, 87% of the Moon is Illuminated
Jan 30
Waning Gibbous
Feb 3
Last Quarter
Feb 10
New
Feb 17
First Quarter
Feb 25
Full

Hourly Weather History & Observations

Time (MST) Temp. Windchill Dew Point Humidity Pressure Visibility Wind Dir Wind Speed Gust Speed Precip Events Conditions
12:58 AM 34.9 °F 30.8 °F 26.8 °F 72% 30.19 in 10.0 mi SSE 4.6 mph - N/A   Clear
1:58 AM 34.5 °F 27.9 °F 26.4 °F 72% 30.21 in 10.0 mi SSW 8.1 mph - N/A   Clear
2:58 AM 37.6 °F 33.1 °F 25.0 °F 60% 30.21 in 10.0 mi South 5.8 mph - N/A   Clear
3:58 AM 35.4 °F - 25.5 °F 67% 30.23 in 10.0 mi NNW 1.2 mph - N/A   Clear
4:58 AM 36.0 °F - 25.5 °F 66% 30.25 in 10.0 mi ESE 2.3 mph - N/A   Clear
5:58 AM 32.9 °F 28.5 °F 25.7 °F 75% 30.26 in 10.0 mi East 4.6 mph - N/A   Clear
6:58 AM 31.6 °F 26.0 °F 26.4 °F 81% 30.29 in 10.0 mi ESE 5.8 mph - N/A   Clear
7:58 AM 32.7 °F 27.3 °F 27.1 °F 80% 30.31 in 10.0 mi SE 5.8 mph - N/A   Clear
8:58 AM 39.6 °F 36.3 °F 27.1 °F 61% 30.31 in 10.0 mi SSE 4.6 mph - N/A   Clear
9:58 AM 42.4 °F - 25.9 °F 52% 30.33 in 10.0 mi NW 1.2 mph - N/A   Clear
10:58 AM 46.9 °F - 23.5 °F 40% 30.32 in 10.0 mi Calm Calm - N/A   Clear
11:58 AM 50.0 °F - 21.6 °F 33% 30.30 in 10.0 mi Variable 1.2 mph - N/A   Clear
12:58 PM 53.1 °F - 16.3 °F 23% 30.27 in 10.0 mi Variable 3.5 mph - N/A   Clear
1:58 PM 52.9 °F - 13.6 °F 21% 30.22 in 10.0 mi Variable 3.5 mph - N/A   Clear
2:58 PM 54.5 °F - 16.3 °F 22% 30.20 in 10.0 mi Variable 2.3 mph - N/A   Clear
3:58 PM 55.0 °F - 17.1 °F 23% 30.20 in 10.0 mi WNW 4.6 mph - N/A   Clear
4:58 PM 55.0 °F - 16.0 °F 22% 30.19 in 10.0 mi WNW 10.4 mph - N/A   Clear
5:58 PM 52.3 °F - 20.5 °F 29% 30.20 in 10.0 mi NW 12.7 mph - N/A   Clear
6:58 PM 48.9 °F - 21.2 °F 34% 30.21 in 10.0 mi WNW 9.2 mph - N/A   Clear
7:58 PM 47.1 °F - 22.3 °F 38% 30.22 in 10.0 mi WNW 8.1 mph - N/A   Clear
8:58 PM 45.1 °F 43.7 °F 20.8 °F 38% 30.20 in 10.0 mi WNW 3.5 mph - N/A   Clear
9:58 PM 43.7 °F - 21.4 °F 41% 30.20 in 10.0 mi West 2.3 mph - N/A   Clear
10:58 PM 40.3 °F 36.3 °F 24.1 °F 52% 30.22 in 10.0 mi South 5.8 mph - N/A   Clear
11:58 PM 38.7 °F 35.2 °F 26.8 °F 62% 30.24 in 10.0 mi ESE 4.6 mph - N/A   Clear